Starlink 3075

operational
NORAD ID: 49409 Int'l Des: 2021-104 Owner: SPXS Country: US Constellation: starlink
LEOCIRCULAR

Starlink 3075について

説明を読み込み中...

リアルタイム位置

3D地球を読み込み中...

次回通過

高度履歴

Altitude vs Time

uPlot chart will show altitude changes over time

軌道要素

1 49409U 21104B 26034.34805325 .00000432 00000-0 45229-4 0 9994
2 49409 53.2193 23.2848 0001592 85.1144 275.0030 15.08840763233454
Epoch: Feb 3, 2026 • Age: 22 hours

現在のステータス

高度 539.9 km
速度 7.60 km/s
衛星直下点 22.69°N, 161.72°E
打ち上げ日 Nov 13, 2021
運用期間 4.2 years
タイプ internet

技術仕様

分類 Payload
質量 290.00 kg
乾燥質量 270.00 kg
総質量 290.00 kg
長さ 0.20 m
直径 2.80 m
スパン 9.00 m
形状 Box + pan
製造者 SPXS
バスタイプ Starlink
フェーズステータス In Orbit
所有者/国 SPXS/US

大規模コンステレーション

Loading constellations...